When you browse on this site, cookies collect data to enhance your experience and personalize the content and advertising you see.
Visit our Privacy Policy to learn more. By continuing to use the site, you agree to this use of cookies and data.
  • In United Kingdom
  • List of Countries
  • For 7 days
  • Water Temperature
  • Satellite Maps
  • Weather Map
  • Weather Widgets
  • user-avatar
    Login

    Hourly Weather Ngo

    Today, 25 June, Tuesday

    Time Temperature Precipitation Wind Pressure Humidity
    00:00 +25°C° 0 mm 2 mps 709 mmHg 60%
    01:00 +25°C° 0 mm 2 mps 709 mmHg 61%
    02:00 +24°C° 0 mm 2 mps 709 mmHg 63%
    03:00 +24°C° 0 mm 2 mps 709 mmHg 65%
    04:00 +24°C° 0 mm 2 mps 708 mmHg 66%
    05:00 +24°C° 0 mm 2 mps 709 mmHg 66%
    06:00 +24°C° 0 mm 3 mps 709 mmHg 65%
    07:00 +24°C° 0 mm 3 mps 710 mmHg 65%
    08:00 +26°C° 0 mm 3 mps 710 mmHg 58%
    09:00 +29°C° 0 mm 3 mps 711 mmHg 51%
    10:00 +31°C° 0 mm 3 mps 711 mmHg 44%
    11:00 +32°C° 0 mm 2 mps 711 mmHg 39%
    12:00 +35°C° 0 mm 2 mps 710 mmHg 34%
    13:00 +37°C° 0 mm 2 mps 710 mmHg 30%
    14:00 +36°C° 0 mm 2 mps 709 mmHg 30%
    15:00 +36°C° 0 mm 2 mps 708 mmHg 29%
    16:00 +36°C° 0 mm 2 mps 708 mmHg 29%
    17:00 +34°C° 0 mm 2 mps 708 mmHg 33%
    18:00 +31°C° 0 mm 2 mps 708 mmHg 37%
    19:00 +29°C° 0 mm 2 mps 708 mmHg 41%
    20:00 +28°C° 0 mm 2 mps 709 mmHg 43%
    21:00 +28°C° 0 mm 2 mps 709 mmHg 45%
    22:00 +27°C° 0 mm 2 mps 709 mmHg 46%
    23:00 +26°C° 0 mm 2 mps 709 mmHg 49%

    Tomorrow, 26 June, Wednesday

    Time Temperature Precipitation Wind Pressure Humidity
    00:00 +26°C° 0 mm 2 mps 709 mmHg 52%
    01:00 +25°C° 0 mm 2 mps 709 mmHg 55%
    02:00 +25°C° 0 mm 2 mps 709 mmHg 58%
    03:00 +24°C° 0 mm 2 mps 709 mmHg 61%
    04:00 +23°C° 0 mm 2 mps 709 mmHg 64%
    05:00 +22°C° 0 mm 3 mps 709 mmHg 66%
    06:00 +22°C° 0 mm 3 mps 710 mmHg 67%
    07:00 +22°C° 0 mm 4 mps 711 mmHg 69%
    08:00 +25°C° 0 mm 4 mps 711 mmHg 64%
    09:00 +26°C° 0 mm 4 mps 711 mmHg 59%
    10:00 +28°C° 0 mm 4 mps 712 mmHg 54%
    11:00 +30°C° 0 mm 3 mps 711 mmHg 49%
    12:00 +31°C° 0 mm 3 mps 711 mmHg 45%
    13:00 +33°C° 0 mm 3 mps 711 mmHg 41%
    14:00 +33°C° 0 mm 3 mps 710 mmHg 41%
    15:00 +33°C° 0 mm 3 mps 709 mmHg 41%
    16:00 +33°C° 0 mm 3 mps 709 mmHg 42%
    17:00 +30°C° 0 mm 3 mps 709 mmHg 46%
    18:00 +28°C° 0 mm 3 mps 709 mmHg 50%
    19:00 +27°C° 0 mm 2 mps 709 mmHg 54%
    20:00 +26°C° 0 mm 2 mps 710 mmHg 54%
    21:00 +26°C° 0 mm 2 mps 710 mmHg 55%
    22:00 +25°C° 0 mm 3 mps 711 mmHg 55%
    23:00 +25°C° 0 mm 3 mps 711 mmHg 56%

    Day after tomorrow, 27 June, Thursday

    Time Temperature Precipitation Wind Pressure Humidity
    00:00 +25°C° 0 mm 3 mps 711 mmHg 57%
    01:00 +24°C° 0 mm 3 mps 710 mmHg 58%
    02:00 +24°C° 0 mm 3 mps 710 mmHg 61%
    03:00 +23°C° 0 mm 2 mps 710 mmHg 63%
    04:00 +21°C° 0 mm 2 mps 710 mmHg 66%
    05:00 +21°C° 0 mm 2 mps 710 mmHg 67%
    06:00 +21°C° 0 mm 3 mps 711 mmHg 69%
    07:00 +21°C° 0 mm 3 mps 711 mmHg 70%
    08:00 +24°C° 0 mm 3 mps 711 mmHg 63%
    09:00 +26°C° 0 mm 3 mps 712 mmHg 55%
    10:00 +29°C° 0 mm 3 mps 712 mmHg 48%
    11:00 +30°C° 0 mm 3 mps 711 mmHg 43%
    12:00 +32°C° 0 mm 2 mps 711 mmHg 38%
    13:00 +34°C° 0 mm 2 mps 710 mmHg 32%
    14:00 +34°C° 0 mm 2 mps 710 mmHg 32%
    15:00 +34°C° 0 mm 2 mps 709 mmHg 31%
    16:00 +34°C° 0 mm 2 mps 709 mmHg 30%
    17:00 +31°C° 0 mm 2 mps 709 mmHg 34%
    18:00 +29°C° 0 mm 2 mps 709 mmHg 38%
    19:00 +27°C° 0 mm 2 mps 709 mmHg 41%
    20:00 +27°C° 0 mm 2 mps 709 mmHg 42%
    21:00 +26°C° 0 mm 2 mps 710 mmHg 42%
    22:00 +25°C° 0 mm 2 mps 710 mmHg 43%
    23:00 +25°C° 0 mm 2 mps 710 mmHg 44%

    28 June, Friday

    Time Temperature Precipitation Wind Pressure Humidity
    00:00 +24°C° 0 mm 2 mps 710 mmHg 45%
    01:00 +24°C° 0 mm 2 mps 710 mmHg 47%
    02:00 +23°C° 0 mm 2 mps 710 mmHg 49%
    03:00 +23°C° 0 mm 2 mps 710 mmHg 51%
    04:00 +21°C° 0 mm 2 mps 709 mmHg 53%
    05:00 +21°C° 0 mm 2 mps 710 mmHg 54%
    06:00 +21°C° 0 mm 2 mps 710 mmHg 55%
    07:00 +21°C° 0 mm 2 mps 711 mmHg 56%
    08:00 +25°C° 0 mm 2 mps 711 mmHg 51%
    09:00 +27°C° 0 mm 2 mps 712 mmHg 45%
    10:00 +29°C° 0 mm 2 mps 712 mmHg 40%
    11:00 +31°C° 0 mm 2 mps 712 mmHg 37%
    12:00 +33°C° 0 mm 1 mps 711 mmHg 33%
    13:00 +35°C° 0 mm 1 mps 711 mmHg 30%
    14:00 +35°C° 0 mm 1 mps 710 mmHg 30%
    15:00 +34°C° 0 mm 1 mps 709 mmHg 30%
    16:00 +34°C° 0 mm 1 mps 709 mmHg 30%
    17:00 +30°C° 0 mm 0 mps 709 mmHg 35%
    18:00 +28°C° 0 mm 0 mps 709 mmHg 39%
    19:00 +26°C° 0 mm 0 mps 709 mmHg 44%
    20:00 +25°C° 0 mm 0 mps 709 mmHg 45%
    21:00 +25°C° 0 mm 0 mps 710 mmHg 46%
    22:00 +24°C° 0 mm 0 mps 710 mmHg 47%
    23:00 +26°C° 0 mm 1 mps 710 mmHg 48%

    29 June, Saturday

    Time Temperature Precipitation Wind Pressure Humidity
    00:00 +25°C° 0 mm 1 mps 710 mmHg 50%
    01:00 +25°C° 0 mm 1 mps 710 mmHg 51%
    02:00 +24°C° 0 mm 1 mps 710 mmHg 54%
    03:00 +24°C° 0 mm 1 mps 710 mmHg 57%
    04:00 +23°C° 0 mm 1 mps 710 mmHg 59%
    05:00 +23°C° 0 mm 2 mps 710 mmHg 61%
    06:00 +23°C° 0 mm 2 mps 711 mmHg 62%
    07:00 +23°C° 0 mm 2 mps 711 mmHg 63%
    08:00 +26°C° 0 mm 2 mps 712 mmHg 57%
    09:00 +28°C° 0 mm 2 mps 712 mmHg 51%
    10:00 +30°C° 0 mm 2 mps 712 mmHg 45%
    11:00 +32°C° 0 mm 1 mps 712 mmHg 40%
    12:00 +35°C° 0 mm 1 mps 711 mmHg 34%
    13:00 +35°C° 0 mm 0 mps 711 mmHg 29%
    14:00 +34°C° 0 mm 0 mps 710 mmHg 29%
    15:00 +35°C° 0 mm 1 mps 709 mmHg 29%
    16:00 +34°C° 0 mm 1 mps 709 mmHg 30%
    17:00 +33°C° 0 mm 1 mps 709 mmHg 33%
    18:00 +31°C° 0 mm 1 mps 709 mmHg 37%
    19:00 +27°C° 0 mm 0 mps 709 mmHg 41%
    20:00 +26°C° 0 mm 0 mps 709 mmHg 42%
    21:00 +26°C° 0 mm 0 mps 710 mmHg 43%
    22:00 +26°C° 0 mm 0 mps 710 mmHg 44%
    23:00 +27°C° 0 mm 1 mps 710 mmHg 46%

    30 June, Sunday

    Time Temperature Precipitation Wind Pressure Humidity
    00:00 +27°C° 0 mm 1 mps 710 mmHg 49%
    01:00 +26°C° 0 mm 1 mps 710 mmHg 51%
    02:00 +25°C° 0 mm 1 mps 710 mmHg 54%
    03:00 +25°C° 0 mm 1 mps 709 mmHg 57%
    04:00 +24°C° 0 mm 1 mps 709 mmHg 60%
    05:00 +24°C° 0 mm 2 mps 710 mmHg 62%
    06:00 +24°C° 0 mm 2 mps 710 mmHg 64%
    07:00 +24°C° 0 mm 3 mps 711 mmHg 66%
    08:00 +26°C° 0 mm 3 mps 712 mmHg 59%
    09:00 +29°C° 0 mm 3 mps 712 mmHg 53%
    10:00 +31°C° 0 mm 3 mps 713 mmHg 47%
    11:00 +34°C° 0 mm 2 mps 712 mmHg 41%
    12:00 +36°C° 0 mm 2 mps 711 mmHg 36%
    13:00 +36°C° 0 mm 1 mps 711 mmHg 31%
    14:00 +36°C° 0 mm 1 mps 710 mmHg 32%
    15:00 +35°C° 0 mm 1 mps 709 mmHg 33%
    16:00 +34°C° 0 mm 1 mps 709 mmHg 34%
    17:00 +33°C° 0 mm 1 mps 709 mmHg 37%
    18:00 +31°C° 0 mm 1 mps 709 mmHg 40%
    19:00 +30°C° 0 mm 1 mps 709 mmHg 44%
    20:00 +29°C° 0 mm 1 mps 709 mmHg 45%
    21:00 +29°C° 0 mm 1 mps 710 mmHg 46%
    22:00 +28°C° 0 mm 1 mps 710 mmHg 47%
    23:00 +28°C° 0 mm 2 mps 710 mmHg 49%
    Show more